[[{"header":{"parameterUnit":"m.s-1","parameterCategory":1,"la1":30.2991,"la2":30.254,"lo1":-89.0895,"lo2":-89.0444,"dy":0.0017,"dx":0.0017,"nx":28,"ny":28,"refTime":"2024-08-04T03:00:00:Z","depth":0,"parameterNumber":2,"parameterNumberName":"U-component_of_WINDS"},"data":[0,0,0,0,0,0,0,0,0,0,0,0,0,0,0,0,0,0,0,0,0,0,0,0,0,0,0,0,0,0,0,0,0,0,0,0,0,0,0,0,0,0,0,0,0,0,0,0,0,0,0,0,0,0,0,0,0,0,-0.4921,-0.492,0,-0.4889,-0.4889,-0.4889,-0.4891,-0.4891,-0.4892,-0.4892,-0.4858,-0.4857,-0.4855,0,0,0,0,0,0,0,0,0,0,0,0,0,-0.498,-0.4978,-0.4921,-0.492,-0.492,-0.4889,-0.4889,-0.4888,-0.4891,-0.4891,-0.4892,-0.4893,-0.4858,-0.4857,-0.4855,0,0,0,0,0,0,0,0,0,0,0,0,0,-0.4952,-0.4978,-0.4921,-0.4917,-0.4917,-0.4889,-0.4889,-0.4888,-0.4891,-0.4891,-0.4892,-0.4893,-0.4859,-0.4857,-0.4855,-0.4828,0,0,-0.4849,-0.4848,0,0,0,0,0,0,0,0,-0.4953,-0.4949,-0.4918,-0.4918,-0.4917,-0.4895,-0.4897,-0.4868,-0.4891,-0.4901,-0.4892,-0.4893,-0.4869,-0.4867,-0.4859,-0.4826,-0.4825,-0.4849,-0.4847,-0.4846,-0.4846,0,0,0,0,0,0,0,-0.4955,-0.4951,-0.4908,-0.4918,-0.4917,-0.4917,-0.4913,-0.4892,-0.4881,-0.49,-0.49,-0.4896,-0.4869,-0.4861,-0.4858,-0.4824,-0.4849,-0.4847,-0.4845,-0.4845,-0.4766,-0.4765,0,0,0,0,0,0,-0.4958,-0.4952,-0.4909,-0.4907,-0.4937,-0.4915,-0.4911,-0.4901,-0.4882,-0.4879,-0.4896,-0.4896,-0.4864,-0.4861,-0.4857,-0.4823,-0.4846,-0.4844,-0.4843,-0.4767,-0.4766,-0.4765,0,0,0,0,0,0,-0.4959,-0.4954,-0.491,-0.493,-0.4924,-0.4913,-0.4902,-0.49,-0.4892,-0.4879,-0.4876,-0.4889,-0.4865,-0.486,-0.4835,-0.4822,-0.4844,-0.4842,-0.4768,-0.4767,-0.4766,-0.4756,0,0,0,0,0,0,-0.4961,-0.4955,-0.4945,-0.493,-0.4923,-0.489,-0.4901,-0.4899,-0.4889,-0.489,-0.4872,-0.487,-0.4865,-0.4838,-0.4833,-0.482,-0.484,-0.4769,-0.4768,-0.4766,-0.4757,-0.4754,-0.4752,0,0,0,0,0,-0.4963,-0.4944,-0.4945,-0.494,-0.4911,-0.4889,-0.4885,-0.4881,-0.4888,-0.4877,-0.4868,-0.487,-0.4824,-0.4835,-0.483,-0.4816,-0.477,-0.4768,-0.4766,-0.4758,-0.4755,-0.4752,0,0,0,0,0,0,-0.4958,-0.4942,-0.4943,-0.4918,-0.4905,-0.489,-0.4877,-0.4877,-0.4862,-0.4863,-0.4857,-0.4853,-0.4827,-0.4819,-0.4832,-0.4788,-0.4798,-0.4795,-0.4794,-0.4791,-0.4788,-0.479,-0.4838,0,0,0,0,0,-0.4954,-0.4938,-0.4924,-0.4903,-0.4897,-0.4888,-0.4878,-0.4875,-0.4862,-0.4856,-0.4845,-0.4831,-0.4813,-0.4802,-0.4784,-0.4756,-0.4752,-0.4743,-0.4741,-0.4739,-0.4736,-0.4719,-0.4714,-0.4759,-0.4759,-0.4759,0,0,-0.4945,-0.4934,-0.4925,-0.4902,-0.4892,-0.4874,-0.4883,-0.4865,-0.4852,-0.4853,-0.4829,-0.482,-0.4804,-0.4777,-0.4764,-0.4769,-0.4722,-0.4736,-0.4735,-0.4733,-0.4716,-0.4712,-0.4708,-0.4757,-0.4758,-0.4758,0,0,-0.492,-0.4911,-0.4892,-0.4881,-0.4866,-0.486,-0.4855,-0.4839,-0.4834,-0.481,-0.481,-0.4793,-0.4763,-0.4751,-0.4741,-0.471,-0.471,-0.4704,-0.469,-0.4674,-0.467,-0.4667,-0.4655,-0.4651,-0.4702,-0.4702,-0.4702,0,-0.4911,-0.4886,-0.4882,-0.4863,-0.4852,-0.4853,-0.4833,-0.4823,-0.4802,-0.4794,-0.48,-0.4761,-0.475,-0.472,-0.4712,-0.4704,-0.4698,-0.4706,-0.4671,-0.4668,-0.4665,-0.4653,-0.4649,-0.4701,-0.4701,-0.4701,-0.4701,0,-0.4875,-0.4857,-0.4843,-0.4824,-0.4812,-0.4792,-0.4784,-0.4772,-0.477,-0.4763,-0.4737,-0.4724,-0.4704,-0.4697,-0.4695,-0.4665,-0.4668,-0.4673,-0.4683,-0.466,-0.4649,-0.4644,-0.47,-0.47,-0.47,-0.4701,0,0,-0.4845,-0.4824,-0.4818,-0.4809,-0.4791,-0.4777,-0.4757,-0.4738,-0.4727,-0.4712,-0.4694,-0.4668,-0.4672,-0.466,-0.4657,-0.4642,-0.4617,-0.4648,-0.4648,-0.4642,-0.4582,-0.4578,-0.4573,-0.4617,-0.4616,-0.4616,-0.4583,0,-0.4818,-0.4784,-0.4779,-0.4748,-0.4731,-0.4731,-0.4713,-0.4699,-0.4692,-0.4675,-0.4667,-0.4648,-0.4655,-0.4647,-0.4633,-0.4623,-0.4605,-0.4625,-0.4599,-0.4598,-0.4603,-0.4567,-0.4564,-0.4533,-0.4579,-0.4578,-0.4577,0,-0.4782,-0.4766,-0.4734,-0.4717,-0.471,-0.4694,-0.4675,-0.466,-0.4644,-0.4639,-0.4626,-0.4624,-0.4601,-0.4613,-0.4581,-0.4596,-0.4584,-0.4578,-0.4576,-0.4573,-0.4586,-0.4562,-0.4524,-0.4519,-0.4571,-0.4571,-0.4572,0,-0.4762,-0.4733,-0.471,-0.4702,-0.4682,-0.4671,-0.4662,-0.4647,-0.4635,-0.4618,-0.461,-0.4591,-0.458,-0.4564,-0.4556,-0.4566,-0.4525,-0.4536,-0.4519,-0.4519,-0.451,-0.4511,-0.4468,-0.4505,-0.4505,-0.4505,-0.4505,0,-0.4732,-0.4711,-0.4701,-0.4686,-0.4663,-0.4657,-0.4634,-0.4625,-0.4611,-0.4594,-0.4593,-0.4576,-0.4567,-0.4549,-0.4543,-0.4517,-0.4512,-0.4507,-0.4505,-0.4506,-0.4507,-0.4498,-0.45,-0.4503,-0.4504,-0.4504,-0.4504,0,-0.4706,-0.4698,-0.4672,-0.4656,-0.4651,-0.4635,-0.462,-0.4605,-0.4597,-0.4575,-0.457,-0.4557,-0.4536,-0.4526,-0.45,-0.4495,-0.4465,-0.4466,-0.4471,-0.447,-0.4453,-0.4455,-0.4403,-0.4396,-0.4438,-0.4437,-0.4437,0,-0.4686,-0.4671,-0.4653,-0.4641,-0.4632,-0.4614,-0.4602,-0.4595,-0.4582,-0.4562,-0.4549,-0.4528,-0.451,-0.4475,-0.4463,-0.4442,-0.4442,-0.4425,-0.4438,-0.444,-0.444,-0.4441,-0.4438,-0.4422,-0.4422,-0.4422,-0.4421,0,-0.4652,-0.4649,-0.4632,-0.4613,-0.4599,-0.4584,-0.4569,-0.456,-0.455,-0.4536,-0.4514,-0.45,-0.4473,-0.4451,-0.4429,-0.4419,-0.4418,-0.4417,-0.4412,-0.4413,-0.4416,-0.4413,-0.4463,-0.4418,-0.4419,-0.4419,-0.4419,-0.4419,-0.4628,-0.4614,-0.4599,-0.4579,-0.4568,-0.4553,-0.4538,-0.4529,-0.4511,-0.4488,-0.4485,-0.4461,-0.4444,-0.4415,-0.4404,-0.4384,-0.4388,-0.4381,-0.4379,-0.4377,-0.4375,-0.442,-0.438,-0.438,-0.438,-0.438,-0.438,0,-0.4593,-0.4583,-0.4566,-0.4545,-0.4529,-0.4531,-0.4514,-0.4501,-0.448,-0.4465,-0.4447,-0.4421,-0.44,-0.4386,-0.4363,-0.435,-0.4349,-0.4344,-0.4345,-0.4342,-0.4373,-0.438,-0.4346,-0.4346,-0.4346,-0.4346,-0.4346,-0.4346,-0.4573,-0.4548,-0.4543,-0.4512,-0.4502,-0.4479,-0.4469,-0.4455,-0.4443,-0.4414,-0.4397,-0.4388,-0.4372,-0.4349,-0.4329,-0.4325,-0.4316,-0.4311,-0.4307,-0.4337,-0.434,-0.4344,-0.4349,-0.431,-0.431,-0.4278,-0.4277,-0.4277]},{"header":{"parameterUnit":"m.s-1","parameterCategory":1,"la1":30.2991,"la2":30.254,"lo1":-89.0895,"lo2":-89.0444,"dy":0.0017,"dx":0.0017,"nx":28,"ny":28,"refTime":"2024-08-04T03:00:00:Z","depth":0,"parameterNumber":3,"parameterNumberName":"V-component_of_WINDS"},"data":[0,0,0,0,0,0,0,0,0,0,0,0,0,0,0,0,0,0,0,0,0,0,0,0,0,0,0,0,0,0,0,0,0,0,0,0,0,0,0,0,0,0,0,0,0,0,0,0,0,0,0,0,0,0,0,0,0,0,-3.8354,-3.8355,0,-3.8411,-3.8411,-3.8412,-3.8458,-3.8459,-3.8459,-3.846,-3.8514,-3.8514,-3.8515,0,0,0,0,0,0,0,0,0,0,0,0,0,-3.8285,-3.8286,-3.8354,-3.8355,-3.8356,-3.8411,-3.8411,-3.8412,-3.8458,-3.8459,-3.8459,-3.846,-3.8513,-3.8514,-3.8516,0,0,0,0,0,0,0,0,0,0,0,0,0,-3.8325,-3.8286,-3.8354,-3.8385,-3.8389,-3.841,-3.8411,-3.8412,-3.8458,-3.8459,-3.846,-3.846,-3.8513,-3.8514,-3.8516,-3.851,0,0,-3.852,-3.8521,0,0,0,0,0,0,0,0,-3.8323,-3.8328,-3.838,-3.8383,-3.8387,-3.8428,-3.8407,-3.8445,-3.8458,-3.8432,-3.846,-3.8461,-3.8484,-3.8488,-3.8497,-3.8512,-3.8515,-3.852,-3.8521,-3.8522,-3.8522,0,0,0,0,0,0,0,-3.832,-3.8326,-3.8376,-3.8381,-3.8385,-3.8396,-3.8403,-3.8414,-3.8453,-3.8434,-3.8437,-3.8444,-3.8486,-3.8495,-3.8499,-3.8515,-3.852,-3.8522,-3.8522,-3.8523,-3.8532,-3.8532,0,0,0,0,0,0,-3.8313,-3.8323,-3.8375,-3.8378,-3.8356,-3.8397,-3.8404,-3.8414,-3.8453,-3.846,-3.8443,-3.8446,-3.8493,-3.8497,-3.8501,-3.8499,-3.8522,-3.8523,-3.8524,-3.8533,-3.8532,-3.8531,0,0,0,0,0,0,-3.8311,-3.8317,-3.8372,-3.8352,-3.836,-3.8397,-3.8408,-3.8415,-3.8424,-3.846,-3.8467,-3.8445,-3.8493,-3.8499,-3.8508,-3.8501,-3.8524,-3.8525,-3.8534,-3.8533,-3.8532,-3.8493,0,0,0,0,0,0,-3.8309,-3.8316,-3.8314,-3.8351,-3.836,-3.8379,-3.8408,-3.8415,-3.8427,-3.8431,-3.8464,-3.847,-3.8494,-3.8506,-3.851,-3.8503,-3.8526,-3.8534,-3.8533,-3.8532,-3.8495,-3.8491,-3.8487,0,0,0,0,0,-3.8306,-3.8299,-3.8314,-3.832,-3.8359,-3.8379,-3.8384,-3.8413,-3.8426,-3.8425,-3.8449,-3.8469,-3.8501,-3.8506,-3.8511,-3.8505,-3.8535,-3.8534,-3.8532,-3.8497,-3.8492,-3.8487,0,0,0,0,0,0,-3.8258,-3.8305,-3.8321,-3.8326,-3.8349,-3.8387,-3.8385,-3.8406,-3.8424,-3.8427,-3.8461,-3.8468,-3.8475,-3.8491,-3.8496,-3.8503,-3.8521,-3.852,-3.8492,-3.8488,-3.8484,-3.848,-3.8527,0,0,0,0,0,-3.8249,-3.8262,-3.8301,-3.8302,-3.8312,-3.8347,-3.8356,-3.8378,-3.8401,-3.841,-3.8434,-3.8456,-3.8471,-3.848,-3.8496,-3.8498,-3.8507,-3.8496,-3.8492,-3.8489,-3.8488,-3.8493,-3.8489,-3.8527,-3.8527,-3.8527,0,0,-3.8228,-3.8255,-3.8261,-3.8293,-3.8313,-3.8325,-3.8354,-3.8365,-3.8375,-3.8412,-3.8423,-3.8442,-3.8468,-3.8475,-3.8478,-3.8488,-3.848,-3.8487,-3.8484,-3.8485,-3.8491,-3.8487,-3.8484,-3.8526,-3.8526,-3.8526,0,0,-3.8198,-3.8219,-3.8223,-3.8243,-3.8274,-3.8298,-3.8299,-3.8334,-3.8349,-3.8361,-3.839,-3.8402,-3.8426,-3.8445,-3.8458,-3.8438,-3.8458,-3.8442,-3.8421,-3.8426,-3.8423,-3.842,-3.8415,-3.8412,-3.8441,-3.8441,-3.8441,0,-3.8168,-3.8189,-3.8222,-3.8233,-3.8247,-3.8284,-3.8289,-3.8306,-3.8339,-3.8348,-3.8359,-3.8393,-3.8413,-3.8426,-3.8422,-3.843,-3.8433,-3.8438,-3.8421,-3.8418,-3.8417,-3.8412,-3.841,-3.8439,-3.8439,-3.8439,-3.844,0,-3.8152,-3.8166,-3.8166,-3.82,-3.8214,-3.8222,-3.8257,-3.8267,-3.8287,-3.831,-3.8323,-3.8349,-3.8372,-3.8377,-3.8395,-3.8393,-3.8398,-3.8414,-3.8433,-3.8411,-3.8407,-3.8405,-3.8436,-3.8437,-3.8437,-3.8438,0,0,-3.809,-3.8146,-3.8145,-3.8163,-3.8201,-3.8212,-3.8222,-3.8247,-3.8256,-3.8278,-3.8288,-3.831,-3.8326,-3.834,-3.8362,-3.8366,-3.8351,-3.8382,-3.8383,-3.8376,-3.8352,-3.834,-3.8337,-3.8365,-3.8365,-3.8365,-3.835,0,-3.8067,-3.8089,-3.8121,-3.8132,-3.8146,-3.8183,-3.8192,-3.8216,-3.8238,-3.8253,-3.8277,-3.8293,-3.8312,-3.8322,-3.8327,-3.8352,-3.8347,-3.8353,-3.8375,-3.8375,-3.8368,-3.8335,-3.8322,-3.8307,-3.8349,-3.8348,-3.8348,0,-3.8042,-3.8065,-3.8078,-3.8118,-3.8126,-3.8133,-3.816,-3.8174,-3.8203,-3.8219,-3.8237,-3.8262,-3.8275,-3.8291,-3.831,-3.8314,-3.8325,-3.8339,-3.8339,-3.8343,-3.8361,-3.8339,-3.8303,-3.8301,-3.8346,-3.8346,-3.8346,0,-3.7998,-3.8032,-3.8046,-3.8059,-3.8105,-3.8111,-3.813,-3.816,-3.8173,-3.8196,-3.8206,-3.8229,-3.8242,-3.826,-3.8291,-3.83,-3.8307,-3.8326,-3.8321,-3.832,-3.8321,-3.832,-3.8287,-3.8326,-3.8326,-3.8326,-3.8326,0,-3.7969,-3.7975,-3.8027,-3.8035,-3.8045,-3.8082,-3.809,-3.8113,-3.8139,-3.8153,-3.8184,-3.8196,-3.8235,-3.8251,-3.8275,-3.8289,-3.8294,-3.8307,-3.8314,-3.8305,-3.8303,-3.8313,-3.8315,-3.8326,-3.8326,-3.8326,-3.8326,0,-3.7921,-3.7956,-3.7973,-3.8017,-3.8028,-3.8033,-3.8071,-3.808,-3.8105,-3.8122,-3.8128,-3.8167,-3.8188,-3.822,-3.825,-3.8266,-3.8276,-3.8286,-3.8267,-3.8271,-3.8265,-3.8266,-3.8237,-3.8236,-3.8274,-3.8274,-3.8274,0,-3.79,-3.7907,-3.7953,-3.7965,-3.7984,-3.8003,-3.8018,-3.8056,-3.807,-3.8106,-3.8111,-3.8135,-3.8157,-3.8189,-3.8219,-3.8243,-3.8254,-3.8243,-3.8258,-3.825,-3.8256,-3.8255,-3.8257,-3.8239,-3.8238,-3.8238,-3.8238,0,-3.786,-3.7879,-3.79,-3.7929,-3.7947,-3.7971,-3.7996,-3.8004,-3.8047,-3.8061,-3.8085,-3.8102,-3.8134,-3.8158,-3.8187,-3.8206,-3.8229,-3.8233,-3.8233,-3.8225,-3.8214,-3.8222,-3.8258,-3.8233,-3.8234,-3.8234,-3.8234,-3.8234,-3.7827,-3.7836,-3.7871,-3.7894,-3.7918,-3.7942,-3.7954,-3.7982,-3.8003,-3.8034,-3.8054,-3.8077,-3.8108,-3.8149,-3.8168,-3.8186,-3.8195,-3.8195,-3.8196,-3.8195,-3.8193,-3.8211,-3.8191,-3.8191,-3.8191,-3.8191,-3.8191,0,-3.779,-3.7815,-3.7837,-3.7873,-3.7892,-3.7915,-3.7945,-3.7959,-3.7979,-3.8007,-3.8028,-3.8056,-3.8081,-3.8114,-3.8141,-3.8149,-3.8161,-3.8155,-3.8155,-3.816,-3.8182,-3.818,-3.8146,-3.8146,-3.8146,-3.8146,-3.8146,-3.8146,-3.7773,-3.7791,-3.7813,-3.7843,-3.7868,-3.7892,-3.7908,-3.793,-3.7953,-3.7983,-3.8005,-3.8027,-3.8058,-3.8088,-3.8111,-3.8121,-3.8129,-3.8121,-3.8133,-3.8153,-3.8158,-3.8162,-3.816,-3.8122,-3.8122,-3.811,-3.811,-3.8109]}]]